This is the latest recevied weather packets stored in our database for station/object YO8SDE-8. If no packets are shown the sender has not sent any weather packets the latest 10 day(s).
| Time | Temp. | Humidity | Pressure | Rain* | Wind** | Luminosity | Snow |
|---|---|---|---|---|---|---|---|
| 1777870862 | 15.56° C | 55% | 1005.1 hPa | 0 mm | - | - | - |
| 1777870562 | 15° C | 57% | 1004.9 hPa | 0 mm | - | - | - |
| 1777870262 | 14.44° C | 59% | 1005.1 hPa | 0 mm | - | - | - |
| 1777869962 | 14.44° C | 60% | 1005.1 hPa | 0 mm | - | - | - |
| 1777869662 | 14.44° C | 60% | 1005.2 hPa | 0 mm | - | - | - |
| 1777869362 | 14.44° C | 60% | 1005.1 hPa | 0 mm | - | - | - |
| 1777869062 | 13.89° C | 61% | 1005.2 hPa | 0 mm | - | - | - |
| 1777868762 | 13.89° C | 64% | 1005.3 hPa | 0 mm | - | - | - |
| 1777868462 | 13.33° C | 67% | 1005 hPa | 0 mm | - | - | - |
| 1777868162 | 11.11° C | 67% | 1005.3 hPa | 0 mm | - | - | - |
| 1777867862 | 10° C | 68% | 1005.2 hPa | 0 mm | - | - | - |
| 1777867562 | 9.44° C | 68% | 1005.1 hPa | 0 mm | - | - | - |
| 1777867262 | 9.44° C | 69% | 1005.3 hPa | 0 mm | - | - | - |
| 1777866962 | 9.44° C | 69% | 1005.4 hPa | 0 mm | - | - | - |
| 1777866662 | 8.89° C | 69% | 1005.3 hPa | 0 mm | - | - | - |
| 1777866362 | 8.89° C | 70% | 1005.3 hPa | 0 mm | - | - | - |
| 1777866062 | 8.33° C | 70% | 1005.3 hPa | 0 mm | - | - | - |
| 1777865762 | 7.78° C | 71% | 1005.3 hPa | 0 mm | - | - | - |
| 1777865462 | 7.78° C | 72% | 1005.4 hPa | 0 mm | - | - | - |
| 1777865162 | 7.78° C | 72% | 1005.4 hPa | 0 mm | - | - | - |
| 1777864862 | 7.78° C | 71% | 1005.3 hPa | 0 mm | - | - | - |
| 1777864562 | 7.78° C | 71% | 1005.3 hPa | 0 mm | - | - | - |
| 1777864262 | 7.22° C | 71% | 1005.3 hPa | 0 mm | - | - | - |
| 1777863962 | 7.78° C | 70% | 1005.2 hPa | 0 mm | - | - | - |
| 1777863662 | 7.78° C | 70% | 1005.2 hPa | 0 mm | - | - | - |
* Rain latest hour (hover to see other rain measurements)
** Current wind speed in m/s (hover to see current wind gust speed)